Wind_Speed
29 39 41 39 34 36 37 34 29 25 22 21 19 21 23 19 15 15 12 11 11 14 11 5 4 4 5 7 8 9 9 8 9 12 15 18 19 21 24 26 28 29 30 30 30 30 32 33 34
26 36 43 42 45 34 38 35 30 27 30 26 23 24 22 21 21 18 18 17 16 12 13 13 12 9 11 11 10 11 11 13 13 14 16 17 19 21 22 21 23 25 26 26 26 25 27 29 29
27 28 40 47 48 35 35 41 35 32 26 26 26 27 25 24 23 21 21 21 21 21 25 23 18 20 18 16 15 16 18 19 19 20 21 21 24 26 27 25 25 24 25 24 27 29 30 29 30
27 29 28 40 47 46 42 41 29 40 38 29 25 27 25 26 29 25 26 25 27 29 29 30 28 26 25 24 22 23 23 26 26 25 27 28 30 34 35 36 37 35 31 29 30 31 31 33 34
26 26 26 29 39 45 43 40 41 33 33 36 29 24 28 23 21 27 31 33 32 33 29 28 29 29 32 30 30 28 28 30 31 33 36 40 41 42 39 40 41 41 38 33 36 36 36 37 39
24 27 27 27 29 37 43 44 45 41 35 34 30 29 28 29 26 18 19 23 28 31 36 34 35 37 38 37 35 34 34 35 35 39 42 44 43 43 42 43 44 44 44 43 45 47 45 48 49
29 29 30 27 25 28 35 45 44 44 39 36 38 42 42 39 36 32 30 31 32 34 34 34 36 35 39 39 38 39 37 38 40 43 47 48 48 49 50 50 48 47 46 48 53 53 53 53 55
31 31 28 28 28 26 29 29 35 42 41 37 32 41 42 39 43 41 36 36 37 38 40 40 37 35 36 39 37 38 41 45 45 47 48 50 51 50 51 51 50 51 51 53 54 57 58 60 58
29 27 26 26 30 31 30 33 31 33 40 35 32 41 40 39 40 41 40 42 41 38 34 32 34 36 36 36 37 40 44 46 47 49 50 50 51 51 52 51 50 51 52 52 54 54 56 61 58
27 26 27 26 28 33 37 35 35 31 30 35 37 36 35 34 39 41 41 42 38 36 39 44 44 45 47 48 48 42 44 46 47 48 48 48 50 50 50 51 51 52 52 53 54 53 52 55 56
29 29 29 28 28 31 31 31 35 31 32 30 35 35 41 39 28 28 35 35 36 38 46 44 42 44 47 48 44 43 43 45 46 47 47 48 50 49 49 52 53 54 54 53 54 53 53 54 54
29 29 31 31 32 32 32 28 30 29 30 32 34 33 38 48 43 46 46 45 46 41 37 49 47 39 43 43 44 46 46 47 47 47 48 50 51 50 50 50 51 52 53 54 53 53 52 52 52
28 29 30 31 33 33 34 33 32 31 32 31 31 36 38 40 49 52 49 46 44 48 49 51 44 43 47 49 42 44 49 50 49 48 49 49 50 51 51 52 52 53 53 53 54 53 52 49 50
30 28 31 32 31 30 33 32 33 33 34 34 33 35 37 40 39 46 51 47 44 51 54 48 52 52 55 56 54 49 49 49 49 48 47 49 52 53 53 54 55 56 56 56 57 58 58 54 53
32 29 31 34 33 33 31 33 35 30 35 34 32 34 37 40 41 43 44 46 47 45 48 48 46 51 51 52 50 51 51 52 53 52 51 48 48 52 55 56 58 59 60 61 62 61 60 57 55
33 33 34 34 33 35 32 36 34 33 37 31 32 34 37 39 41 42 43 43 42 45 46 44 48 49 48 50 52 53 53 53 55 54 55 48 44 47 49 49 49 52 49 51 54 56 57 55 52
37 40 37 34 36 36 36 36 33 35 37 32 35 36 38 39 39 40 45 45 45 47 49 52 53 53 50 50 51 50 49 48 46 47 49 46 31 36 36 38 41 46 44 45 48 48 52 51 50
41 40 38 37 37 37 36 39 35 38 38 33 33 38 40 40 37 41 46 48 48 49 49 50 51 52 53 51 48 47 47 46 43 40 39 38 31 32 30 31 38 38 42 38 39 39 38 40 44
42 40 39 41 40 37 39 39 35 39 38 34 35 37 40 40 36 38 42 45 47 47 45 43 45 46 46 47 46 43 41 41 42 42 40 39 36 41 45 46 36 37 39 38 36 39 39 36 37
41 40 40 42 42 39 40 40 40 37 40 35 36 37 41 42 36 37 39 41 43 45 44 43 41 40 44 46 43 42 40 39 36 37 37 37 37 42 48 52 51 44 42 41 44 43 39 38 37
47 44 44 46 45 40 42 43 44 41 43 36 36 40 43 46 39 39 40 42 42 42 44 45 45 43 42 43 43 42 40 40 40 41 40 39 41 43 45 43 48 49 49 49 49 48 47 44 43
51 51 49 49 49 45 45 44 45 45 46 41 39 41 45 50 45 43 45 45 43 43 44 46 47 46 45 44 44 44 44 42 41 42 43 45 47 45 50 51 55 57 56 54 51 52 52 57 54
53 55 53 53 54 50 49 46 43 48 48 47 41 41 42 46 47 48 48 51 50 48 48 49 50 50 51 51 51 51 50 49 48 49 49 50 50 52 53 55 58 60 63 64 64 64 65 65 65
52 55 55 55 56 52 50 52 45 49 53 51 43 40 41 45 48 50 51 55 51 52 52 51 53 54 55 55 56 57 56 56 55 54 55 56 56 57 59 60 62 64 66 66 67 68 68 68 67
57 57 58 57 57 50 55 54 45 50 60 52 46 47 46 47 49 51 52 54 54 55 56 57 57 57 57 57 59 60 57 57 57 57 58 59 61 62 62 63 64 64 64 64 65 65 65 66 67
61 62 60 59 58 54 58 51 45 54 57 57 57 51 50 51 52 53 54 54 55 58 57 60 60 60 60 61 61 60 61 61 61 61 62 63 62 62 61 61 61 62 63 64 65 67 67 68 67
64 63 65 64 62 60 57 57 54 60 60 63 61 55 53 53 54 53 56 58 60 60 62 60 61 60 60 63 66 65 66 63 60 56 59 60 62 61 61 63 65 65 66 67 66 66 67 67 67
65 67 70 70 69 66 61 62 61 66 66 65 62 57 57 57 58 58 60 59 62 63 62 64 61 55 62 65 66 65 63 50 51 60 64 64 65 68 68 71 71 73 76 77 78 78 77 78 78
73 70 73 73 71 69 65 63 66 68 69 67 65 61 60 61 62 60 63 61 61 65 65 61 59 70 71 62 59 60 55 62 69 69 72 72 74 77 81 79 79 80 81 83 83 84 84 84 84
80 79 81 83 76 77 75 69 66 67 73 73 68 62 58 51 58 54 44 54 66 70 68 64 67 68 62 63 57 61 66 72 77 79 82 79 82 83 84 84 84 82 80 76 74 75 75 76 79
Wind_Direction
209 216 219 222 209 196 207 212 220 214 212 208 216 237 246 246 242 243 232 242 264 272 250 267 237 263 286 284 300 313 314 312 306 287 275 272 267 264 261 259 259 260 263 267 270 274 279 283 288
215 218 217 223 227 222 209 218 209 216 226 229 225 225 235 243 246 243 251 255 263 251 267 290 272 271 276 285 279 299 303 294 286 284 284 282 281 281 279 280 280 277 277 278 278 280 284 286 288
224 224 221 225 230 219 211 223 217 219 220 218 222 230 236 237 238 245 246 246 254 255 268 272 266 267 265 267 274 285 289 298 298 296 293 288 285 282 276 275 280 284 288 290 293 289 290 292 290
225 231 229 230 231 233 240 232 223 226 227 222 229 237 237 245 243 241 251 253 248 248 260 274 276 267 261 257 266 277 282 286 291 289 290 294 292 298 292 287 283 281 280 284 287 288 285 287 290
227 235 239 239 236 239 245 249 245 228 220 231 239 259 234 233 240 248 243 246 252 254 259 266 270 273 274 266 270 272 275 281 284 286 291 295 297 294 289 288 287 286 282 278 286 285 282 286 289
232 231 236 239 237 239 244 247 252 248 239 234 253 251 246 258 257 256 259 264 265 268 271 276 278 277 270 268 270 272 275 282 287 290 291 293 291 290 287 286 285 282 280 277 283 288 288 289 288
243 237 235 237 242 245 249 250 249 253 256 260 261 257 261 258 258 259 271 276 281 276 276 275 274 278 268 268 268 273 280 281 282 283 286 288 289 289 289 288 284 282 277 278 278 284 287 287 286
249 248 246 246 247 250 252 258 255 250 250 251 245 260 263 271 267 264 265 270 276 276 274 266 270 277 276 274 275 278 281 286 287 287 287 289 290 289 289 288 286 282 280 278 277 278 284 283 283
252 254 254 247 243 240 245 248 249 249 249 243 238 255 266 266 266 266 266 265 272 269 264 265 279 280 276 277 275 276 278 279 279 282 283 285 286 287 288 288 286 284 281 279 278 277 279 281 283
253 253 252 249 248 243 242 247 249 249 248 245 246 237 250 247 251 257 260 262 266 270 268 272 284 286 284 281 281 278 281 278 279 279 280 283 284 284 285 285 285 283 282 282 280 281 280 279 281
248 250 250 252 250 250 248 249 247 245 250 250 250 241 229 233 249 254 256 254 259 267 270 269 274 280 282 283 282 284 283 284 284 284 284 285 286 286 286 286 285 284 282 281 281 281 280 279 281
247 249 252 253 253 255 256 249 255 255 250 248 252 247 241 241 237 258 265 264 273 272 275 272 279 282 285 283 285 287 287 286 285 284 285 287 286 286 286 286 286 285 285 284 283 281 280 281 281
247 250 253 256 259 259 258 256 250 248 248 244 250 256 253 244 240 242 263 272 272 272 274 273 264 266 276 287 287 287 288 287 286 287 287 288 289 289 288 285 284 283 283 283 284 284 282 281 281
251 253 256 255 258 261 262 261 259 252 253 251 246 250 255 259 254 247 256 266 267 270 272 269 272 288 286 286 288 287 284 285 285 285 286 287 288 289 289 288 286 284 283 283 283 283 282 282 280
260 254 258 261 260 259 262 264 264 264 259 259 256 252 250 251 252 256 254 255 262 265 272 273 279 279 287 291 292 291 290 289 287 287 286 285 288 290 289 286 285 284 285 284 282 282 281 278 276
254 256 254 260 264 265 267 266 270 272 270 267 262 260 258 255 255 258 260 258 260 268 274 276 269 272 279 285 283 284 286 288 290 292 291 294 294 294 290 287 286 282 281 282 284 284 282 280 278
248 252 259 263 264 267 268 273 274 274 274 279 279 277 272 273 272 271 270 269 268 269 270 272 274 276 275 277 280 282 284 285 288 290 291 294 299 298 295 292 290 287 286 287 284 281 280 279 277
253 256 260 261 262 263 265 269 273 275 276 279 281 280 278 276 275 277 277 276 272 270 272 275 278 278 278 277 279 283 285 286 282 278 278 280 266 260 264 281 281 287 293 288 287 285 286 286 280
254 254 254 256 258 263 265 268 268 271 275 274 275 278 279 276 276 279 281 282 282 281 278 278 281 283 286 287 287 286 282 283 281 280 277 272 263 257 258 270 281 285 292 284 286 286 287 285 286
252 252 255 257 257 261 267 269 267 268 271 270 273 276 277 277 281 281 283 282 284 286 286 284 281 283 285 287 289 289 289 286 281 279 276 274 270 263 266 273 278 286 281 287 286 284 282 285 287
253 250 253 257 257 259 265 268 269 266 267 265 268 272 275 276 276 276 278 279 280 282 281 280 281 280 279 283 288 289 288 287 286 286 282 276 277 275 276 274 277 277 274 277 280 279 279 280 281
257 255 254 258 260 260 260 265 268 265 263 266 267 273 276 279 281 279 278 277 277 277 277 279 280 282 283 282 281 282 283 282 281 281 283 284 283 280 280 278 276 278 279 278 273 272 271 277 279
258 259 257 258 261 260 263 262 263 267 267 262 261 270 276 279 282 280 278 277 278 278 277 278 281 283 284 286 285 284 283 282 281 278 278 278 278 280 280 279 279 279 280 279 276 274 274 275 275
260 262 261 259 261 263 264 260 260 268 268 270 267 267 272 273 275 278 279 280 281 280 280 280 281 283 285 287 287 286 286 286 285 283 283 282 280 279 278 278 278 278 279 279 278 277 276 275 274
262 260 262 263 264 264 265 264 264 267 268 271 275 270 269 272 274 274 274 277 280 281 281 281 283 284 285 285 285 285 286 285 285 286 286 285 284 283 283 283 283 283 283 282 281 280 278 276 275
264 265 266 266 266 263 263 273 270 267 273 272 269 270 274 271 270 271 276 277 277 276 281 283 284 282 284 285 284 285 285 284 286 286 288 288 287 286 286 286 286 286 287 286 284 282 281 279 278
265 266 265 264 264 265 266 266 264 268 269 271 275 279 278 276 277 278 278 278 280 282 281 280 280 282 286 285 285 284 285 283 283 288 291 291 289 286 286 287 288 288 287 286 285 283 283 281 278
262 260 262 263 262 262 259 262 267 267 268 272 276 277 278 277 276 278 278 281 281 279 281 281 275 274 283 284 282 282 281 270 282 291 296 290 293 286 288 291 290 291 292 290 288 286 283 281 280
263 260 262 262 263 263 259 260 263 268 270 269 270 274 277 278 281 279 276 278 278 284 283 282 269 280 287 287 283 281 272 274 288 292 293 290 290 290 290 292 291 292 292 290 287 286 283 281 280
262 262 261 262 263 263 265 263 262 265 268 268 271 276 285 282 280 273 267 282 283 283 285 281 277 281 287 290 287 281 281 283 286 291 292 292 292 293 294 294 295 295 293 291 288 285 284 282 281
Height
10967 10967 10967 10968 10971 10973 10974 10977 10983 10984 10982 10984 10988 10988 10989 10992 10995 10992 10993 10994 10996 10996 10997 10997 10996 10996 10996 10996 10996 10994 10994 10993 10993 10992 10991 10991 10990 10989 10988 10988 10987 10987 10987 10987 10986 10985 10983 10981 10979
10963 10963 10964 10965 10965 10970 10974 10974 10980 10980 10980 10982 10987 10986 10987 10990 10991 10991 10993 10994 10994 10994 10993 10996 10996 10995 10994 10994 10994 10993 10992 10992 10991 10990 10989 10988 10987 10986 10985 10984 10983 10984 10984 10984 10983 10982 10979 10977 10975
10958 10959 10960 10961 10960 10970 10970 10970 10978 10979 10977 10978 10981 10982 10985 10987 10988 10990 10991 10991 10991 10992 10991 10992 10992 10992 10992 10991 10991 10990 10990 10990 10989 10988 10987 10986 10985 10983 10982 10981 10980 10981 10981 10981 10980 10978 10975 10972 10970
10955 10954 10957 10959 10964 10967 10970 10969 10976 10976 10978 10978 10978 10980 10983 10984 10985 10986 10987 10988 10987 10987 10987 10987 10987 10987 10987 10987 10987 10987 10986 10986 10986 10985 10984 10982 10982 10980 10979 10979 10978 10978 10978 10976 10974 10971 10970 10968 10966
10952 10952 10954 10956 10958 10962 10962 10962 10968 10975 10978 10980 10981 10979 10980 10981 10981 10982 10980 10982 10982 10982 10981 10981 10981 10981 10982 10982 10981 10981 10981 10981 10981 10980 10979 10977 10976 10974 10973 10973 10973 10973 10973 10970 10967 10965 10965 10964 10961
10949 10947 10948 10950 10952 10955 10955 10955 10960 10968 10975 10978 10977 10974 10973 10972 10974 10975 10974 10975 10975 10975 10975 10975 10974 10975 10975 10976 10976 10976 10976 10975 10974 10974 10973 10971 10969 10968 10967 10967 10966 10967 10965 10963 10959 10958 10958 10957 10953
10941 10943 10944 10947 10950 10951 10951 10952 10958 10963 10969 10971 10969 10969 10967 10966 10968 10969 10969 10969 10970 10970 10969 10969 10969 10969 10969 10969 10969 10970 10969 10969 10967 10966 10965 10964 10962 10960 10959 10959 10958 10957 10956 10955 10952 10950 10949 10947 10943
10935 10939 10944 10947 10946 10950 10950 10952 10954 10958 10962 10963 10962 10963 10962 10961 10962 10964 10965 10963 10965 10964 10963 10963 10963 10962 10962 10962 10962 10962 10961 10960 10958 10957 10956 10954 10953 10951 10950 10950 10949 10948 10946 10946 10945 10945 10940 10933 10934
10930 10935 10938 10940 10940 10942 10943 10944 10947 10950 10956 10954 10956 10954 10959 10957 10954 10955 10960 10958 10957 10956 10956 10955 10956 10956 10955 10955 10954 10953 10953 10952 10951 10949 10947 10946 10945 10943 10942 10941 10940 10937 10935 10935 10934 10935 10932 10920 10923
10927 10929 10930 10931 10933 10937 10935 10940 10942 10946 10950 10945 10952 10953 10955 10953 10950 10946 10950 10949 10950 10948 10949 10948 10948 10947 10946 10945 10945 10945 10944 10944 10943 10940 10938 10938 10936 10935 10935 10933 10930 10927 10925 10925 10923 10924 10920 10911 10911
10921 10923 10924 10925 10925 10927 10931 10933 10935 10940 10942 10941 10943 10947 10949 10952 10948 10940 10940 10942 10942 10944 10942 10938 10939 10941 10939 10938 10937 10936 10936 10936 10935 10932 10931 10930 10928 10928 10927 10925 10921 10917 10914 10914 10913 10913 10909 10903 10902
10916 10917 10918 10919 10920 10921 10923 10929 10930 10935 10937 10936 10937 10940 10942 10944 10950 10936 10929 10933 10932 10932 10936 10933 10931 10935 10932 10932 10929 10928 10928 10926 10926 10924 10922 10921 10920 10918 10918 10915 10910 10906 10903 10902 10901 10900 10899 10894 10894
10910 10910 10912 10912 10913 10915 10915 10919 10926 10928 10929 10933 10934 10931 10934 10936 10939 10939 10928 10929 10924 10921 10925 10928 10924 10926 10925 10924 10922 10917 10915 10915 10915 10915 10914 10912 10910 10908 10906 10903 10899 10895 10892 10891 10889 10888 10886 10885 10882
10906 10906 10905 10907 10908 10909 10909 10911 10912 10919 10920 10925 10928 10927 10926 10923 10930 10931 10928 10921 10919 10915 10916 10918 10913 10910 10911 10912 10911 10910 10909 10908 10907 10907 10908 10904 10899 10894 10892 10889 10886 10883 10881 10880 10878 10875 10873 10876 10871
10898 10901 10900 10899 10900 10902 10903 10902 10902 10910 10909 10915 10919 10918 10917 10918 10920 10920 10920 10920 10914 10911 10906 10908 10908 10907 10900 10894 10894 10893 10894 10893 10894 10896 10897 10898 10896 10890 10884 10878 10872 10867 10865 10864 10863 10862 10859 10860 10861
10893 10892 10892 10893 10894 10893 10896 10894 10898 10899 10897 10908 10909 10909 10906 10908 10910 10910 10909 10910 10908 10903 10899 10900 10902 10903 10901 10892 10889 10891 10888 10885 10884 10883 10878 10884 10884 10879 10870 10866 10862 10858 10856 10853 10851 10848 10845 10846 10848
10886 10885 10887 10889 10888 10889 10889 10888 10890 10890 10890 10896 10893 10893 10892 10892 10895 10896 10893 10896 10900 10898 10897 10893 10891 10889 10892 10891 10886 10884 10883 10883 10881 10874 10868 10872 10878 10869 10862 10857 10856 10849 10845 10844 10842 10841 10835 10835 10835
10880 10881 10882 10881 10880 10881 10883 10882 10884 10882 10883 10888 10885 10880 10879 10882 10886 10881 10877 10877 10881 10884 10882 10879 10876 10874 10875 10878 10878 10877 10873 10875 10872 10873 10869 10868 10865 10859 10854 10852 10848 10842 10837 10836 10833 10830 10828 10825 10825
10873 10874 10874 10872 10872 10875 10875 10876 10879 10875 10877 10881 10878 10873 10871 10872 10877 10873 10868 10863 10861 10864 10869 10870 10866 10862 10861 10860 10864 10866 10864 10864 10861 10860 10859 10858 10857 10852 10848 10846 10839 10834 10832 10829 10826 10824 10821 10818 10818
10865 10866 10865 10863 10864 10868 10867 10868 10869 10871 10868 10875 10871 10865 10861 10863 10868 10865 10861 10857 10854 10852 10852 10855 10858 10858 10852 10849 10851 10852 10852 10852 10852 10849 10846 10846 10844 10842 10837 10832 10828 10825 10825 10823 10820 10818 10814 10812 10810
10853 10857 10855 10853 10855 10860 10858 10858 10858 10861 10857 10867 10864 10857 10854 10852 10859 10858 10853 10850 10848 10846 10844 10842 10844 10847 10847 10843 10841 10840 10841 10841 10838 10836 10832 10832 10832 10830 10825 10824 10820 10816 10815 10815 10810 10808 10804 10802 10802
10842 10843 10846 10844 10846 10850 10851 10851 10849 10846 10849 10854 10854 10850 10846 10842 10847 10846 10842 10840 10841 10839 10837 10835 10833 10833 10834 10836 10835 10833 10831 10831 10829 10825 10821 10818 10816 10816 10812 10810 10807 10804 10802 10800 10798 10795 10792 10789 10788
10831 10829 10834 10835 10834 10838 10840 10843 10837 10833 10836 10841 10848 10846 10840 10832 10832 10831 10831 10826 10829 10828 10827 10826 10825 10822 10820 10819 10819 10818 10817 10817 10817 10813 10810 10807 10806 10804 10800 10796 10793 10790 10787 10785 10783 10780 10778 10776 10774
10818 10816 10819 10821 10820 10827 10825 10825 10830 10824 10819 10825 10836 10838 10832 10826 10822 10820 10818 10814 10817 10815 10814 10814 10813 10810 10808 10806 10804 10802 10801 10801 10800 10798 10795 10794 10791 10789 10786 10782 10779 10776 10772 10768 10765 10762 10759 10758 10756
10804 10804 10805 10808 10809 10817 10806 10810 10823 10813 10802 10814 10820 10820 10822 10820 10814 10809 10807 10804 10804 10803 10802 10800 10800 10798 10795 10793 10790 10788 10787 10784 10784 10782 10779 10777 10774 10770 10767 10764 10760 10758 10755 10752 10749 10745 10742 10739 10737
10789 10789 10792 10792 10793 10798 10794 10803 10810 10796 10793 10795 10800 10808 10810 10808 10805 10803 10796 10794 10793 10789 10788 10786 10784 10781 10780 10778 10775 10772 10771 10769 10767 10765 10762 10759 10755 10751 10748 10746 10742 10739 10736 10733 10731 10726 10723 10718 10717
10775 10774 10771 10773 10776 10779 10784 10785 10790 10780 10780 10777 10784 10792 10793 10793 10789 10790 10786 10782 10778 10775 10774 10772 10768 10766 10765 10760 10757 10756 10753 10751 10751 10750 10746 10743 10740 10736 10732 10728 10724 10722 10719 10715 10713 10710 10705 10700 10699
10754 10752 10748 10751 10753 10759 10769 10769 10772 10764 10765 10768 10770 10773 10775 10776 10774 10775 10772 10768 10762 10759 10757 10755 10753 10751 10751 10746 10741 10740 10736 10732 10733 10731 10729 10726 10723 10719 10715 10712 10707 10702 10698 10694 10690 10687 10685 10682 10678
10726 10733 10727 10726 10730 10737 10749 10755 10749 10747 10746 10749 10755 10761 10762 10762 10761 10760 10758 10756 10748 10743 10741 10740 10736 10734 10732 10731 10726 10722 10718 10715 10713 10711 10709 10708 10704 10700 10695 10691 10687 10681 10676 10669 10665 10663 10659 10655 10652
10705 10710 10704 10701 10717 10714 10723 10734 10733 10730 10722 10727 10739 10747 10749 10745 10742 10742 10743 10742 10737 10729 10727 10724 10720 10717 10715 10713 10708 10705 10701 10700 10697 10694 10692 10688 10684 10678 10673 10669 10664 10658 10652 10646 10640 10636 10632 10629 10626